Weather WX

World > North America > United States > Minnesota

Vergas, Minnesota Regional Weather

Lat: 46.66N, Lon: 95.8W
Wx Zone: MNZ030
Warning FLW WEATHER ALERT - (More Info. Click Here) Warning
Feedback

Vergas, MN Regional Weather

Expires:201906161500;;163085
ASUS43 KMPX 161410
RWRMN 
WEATHER ROUNDUP FOR MINNESOTA
NATIONAL WEATHER SERVICE TWIN CITIES/CHANHASSEN MN
900 AM CDT SUN JUN 16 2019


NOTE: "FAIR" INDICATES FEW OR NO CLOUDS BELOW 12,000 FEET WITH NO
SIGNIFICANT WEATHER AND/OR OBSTRUCTIONS TO VISIBILITY. N/A MEANS
CURRENT SKY AND/OR WEATHER CONDITIONS ARE NOT AVAILABLE.


MNZ029>031-032-039>041-046>048-054>057-064-161500-
   West Central Minnesota   
  
CITY           SKY/WX    TMP DP  RH WIND       PRES   REMARKS
FERGUS FALLS   PTSUNNY   59  52  77 SE8       29.87S                  
WHEATON        CLOUDY    61  54  77 CALM      29.88R                  
MORRIS         CLOUDY    59  52  77 SE5       29.84R                  
ALEXANDRIA     CLOUDY    59  50  72 SE8       29.90R                  
ELBOW LAKE     CLOUDY    57  52  85 SE7       29.89R                  
GLENWOOD       FAIR      57  52  82 E6        29.90R                  
APPLETON       PTSUNNY   63  54  72 S6        29.88R                  
BENSON         CLOUDY    63  55  77 CALM      29.89R                  
ORTONVILLE     CLOUDY    63  57  82 CALM      29.87R HAZE             
MADISON        CLOUDY    66  63  88 S6        29.89R                  
WILLMAR        PTSUNNY   64  59  82 E9        29.92R                  
$$

SKY/WX - Weather  TMP - Temperature  DP - Dew Point  RH - Relative Humidity
WIND - Wind Direction/Speed PRES - Barometric Pressure VSB - Visibility
WCI - Wind Chill Index E13G22 Wind - East Wind 13 mph/Gusts of 22 mph